918  
ASUS45 KCYS 280510  
RWRWY  
 
WYOMING REGIONAL WEATHER ROUNDUP  
NATIONAL WEATHER SERVICE CHEYENNE WY  
1000 PM MST SUN NOV 27 2022  
 
NOTE: "FAIR" INDICATES FEW OR NO CLOUDS BELOW 12,000 FEET  
WITH NO SIGNIFICANT WEATHER AND/OR S TO VISIBILITY
.  
 
WYZ001-280600-  
YELLOWSTONE NATIONAL PARK  
 
CITY SKY/WX TMP DP RH WIND PRES REMARKS
 
LK YELLOWSTONE N/A 20 17 88 W7G23 29.58F WCI 11  
W YELLOWSTONE NOT AVBL  
 

 
WYZ002>013-054>058-071-098>099-280600-  
NORTHERN WYOMING  
 
CITY SKY/WX TMP DP RH WIND PRES REMARKS
 
JACKSON LGT SNOW 26 24 92 S17 29.66F VSB 1 WCI 13  
CODY CLOUDY 34 19 54 W6 29.57S WCI 29  
GREYBULL FAIR 27 23 85 SE3 29.58F  
WORLAND FAIR 22 21 96 SE9 29.58S WCI 12  
SHERIDAN FAIR 44 16 32 VRB3 29.50S  
BUFFALO FAIR 41 19 41 N3 29.51S  
GILLETTE FAIR 36 21 54 SW21G31 29.52S WCI 25  
HULETT N/A N/A N/A N/A MISG N/A  
NEWCASTLE FAIR 28 19 69 NE6 29.60F WCI 22  
 

 
WYZ014>020-022>026-101>103-280600-  
CENTRAL WYOMING  
 
CITY SKY/WX TMP DP RH WIND PRES REMARKS
 
BIG PINEY CLOUDY 25 17 72 W15 29.74F WCI 13  
PINEDALE CLOUDY 21 16 79 CALM 29.74F  
DUBOIS CLOUDY 27 12 54 W20G30 29.57F WCI 13  
LANDER FAIR 36 12 37 W10G16 29.61S WCI 28  
RIVERTON FAIR 27 16 63 SW10 29.62F WCI 17  
CASPER FLURRIES 32 20 61 SW31G48 29.63F WCI 17  
DOUGLAS FAIR 37 18 46 W16G30 29.62F WCI 28  
 

 
WYZ021-027>030-104>119-280600-  
SOUTHERN WYOMING  
 
CITY SKY/WX TMP DP RH WIND PRES REMARKS
 
EVANSTON CLOUDY 28 14 55 SW14 29.81F WCI 17  
KEMMERER FAIR 23 14 68 W13 29.79S WCI 11  
ROCK SPRINGS CLOUDY 28 14 55 SW10 29.80F WCI 19  
DIXON CLOUDY 33 20 60 MISG 29.87F  
RAWLINS FAIR 29 17 61 SW17G30 29.75F WCI 17  
SARATOGA CLOUDY 32 19 59 SE5 29.80F WCI 27  
LARAMIE CLOUDY 31 15 52 SW7G22 29.76S WCI 24  
CHEYENNE FAIR 38 15 39 S13G28 29.71R WCI 30  
TORRINGTON FAIR 40 20 44 W12 29.64F WCI 33  
 

 
 
 
CLICK HERE TO GO TO PREVIOUS BULLETINS.

The Nexlab WY Page Main Text Page